Zurück zum Katalog

STARLINK-36815

AktivKommunikationSSO
NORAD 68313·PAYLOAD·🇺🇸 United States

Gestartet Mar 20, 2026 von Vandenberg Space Force Base

Loading…

Nächste Überflüge (nächste 24 Stunden)

TLE

AktuellSource: CelesTrak SupGP

Epoche: Sep 15, 2026, 04:16 UTC

1 68313C 26057V   26258.17826389  .00001628  00000+0  50530-4 0  2589
2 68313  97.2852  23.7226 0000944  84.0555 237.6748 15.33439172    18

Verfolge STARLINK-36815 in Echtzeit mit AllMySat

Download on the App Store